• In Kazakhstan
  • List of Countries
  • For 7 days
  • Water Temperature
  • Satellite Maps
  • Weather Map
  • News
  • Weather Widgets
  • user-avatar
    Login

    Hourly Weather Indianapolis

    Today, 22 September, Friday

    Time Temperature Precipitation Wind Pressure Humidity
    00:00 +25°C° 0 mm 1 mps 743 mmHg 85%
    01:00 +25°C° 0.4 mm 1 mps 743 mmHg 87%
    02:00 +24°C° 0.4 mm 1 mps 744 mmHg 88%
    03:00 +24°C° 0.4 mm 1 mps 744 mmHg 89%
    04:00 +24°C° 0 mm 1 mps 744 mmHg 90%
    05:00 +24°C° 0 mm 1 mps 744 mmHg 90%
    06:00 +22°C° 0 mm 0 mps 744 mmHg 91%
    07:00 +24°C° 0.9 mm 0 mps 744 mmHg 85%
    08:00 +28°C° 0.9 mm 1 mps 744 mmHg 80%
    09:00 +29°C° 0.9 mm 1 mps 745 mmHg 75%
    10:00 +30°C° 0.5 mm 1 mps 745 mmHg 69%
    11:00 +31°C° 0.5 mm 1 mps 745 mmHg 64%
    12:00 +32°C° 0.5 mm 1 mps 745 mmHg 58%
    13:00 +32°C° 0.1 mm 1 mps 744 mmHg 60%
    14:00 +31°C° 0.1 mm 1 mps 744 mmHg 62%
    15:00 +31°C° 0.1 mm 2 mps 743 mmHg 64%
    16:00 +30°C° 0 mm 2 mps 743 mmHg 68%
    17:00 +28°C° 0 mm 1 mps 743 mmHg 72%
    18:00 +27°C° 0 mm 1 mps 743 mmHg 77%
    19:00 +26°C° 0 mm 1 mps 743 mmHg 79%
    20:00 +26°C° 0 mm 1 mps 743 mmHg 81%
    21:00 +25°C° 0 mm 1 mps 744 mmHg 84%
    22:00 +25°C° 0 mm 1 mps 743 mmHg 85%
    23:00 +24°C° 0 mm 1 mps 743 mmHg 87%

    Tomorrow, 23 September, Saturday

    Time Temperature Precipitation Wind Pressure Humidity
    00:00 +24°C° 0 mm 1 mps 743 mmHg 89%
    01:00 +23°C° 0 mm 1 mps 743 mmHg 89%
    02:00 +23°C° 0 mm 1 mps 743 mmHg 90%
    03:00 +23°C° 0 mm 1 mps 743 mmHg 90%
    04:00 +23°C° 0 mm 1 mps 744 mmHg 90%
    05:00 +22°C° 0 mm 1 mps 744 mmHg 90%
    06:00 +22°C° 0 mm 1 mps 744 mmHg 91%
    07:00 +24°C° 0 mm 1 mps 744 mmHg 84%
    08:00 +26°C° 0 mm 1 mps 745 mmHg 77%
    09:00 +28°C° 0 mm 1 mps 745 mmHg 70%
    10:00 +29°C° 0 mm 1 mps 745 mmHg 65%
    11:00 +30°C° 0 mm 1 mps 745 mmHg 60%
    12:00 +31°C° 0 mm 1 mps 745 mmHg 54%
    13:00 +31°C° 0 mm 2 mps 744 mmHg 54%
    14:00 +32°C° 0 mm 2 mps 744 mmHg 54%
    15:00 +32°C° 0 mm 2 mps 744 mmHg 54%
    16:00 +30°C° 0 mm 2 mps 744 mmHg 59%
    17:00 +28°C° 0 mm 2 mps 744 mmHg 64%
    18:00 +26°C° 0 mm 2 mps 743 mmHg 69%
    19:00 +25°C° 0 mm 2 mps 744 mmHg 71%
    20:00 +25°C° 0 mm 2 mps 744 mmHg 74%
    21:00 +24°C° 0 mm 2 mps 744 mmHg 76%
    22:00 +23°C° 0 mm 2 mps 744 mmHg 77%
    23:00 +23°C° 0 mm 2 mps 744 mmHg 78%

    Day after tomorrow, 24 September, Sunday

    Time Temperature Precipitation Wind Pressure Humidity
    00:00 +21°C° 0 mm 2 mps 744 mmHg 79%
    01:00 +21°C° 0 mm 2 mps 744 mmHg 79%
    02:00 +21°C° 0 mm 2 mps 744 mmHg 79%
    03:00 +20°C° 0 mm 2 mps 744 mmHg 79%
    04:00 +20°C° 0 mm 2 mps 744 mmHg 80%
    05:00 +20°C° 0 mm 2 mps 744 mmHg 80%
    06:00 +20°C° 0 mm 2 mps 744 mmHg 80%
    07:00 +23°C° 0 mm 2 mps 744 mmHg 75%
    08:00 +25°C° 0 mm 2 mps 744 mmHg 69%
    09:00 +27°C° 0 mm 2 mps 745 mmHg 63%
    10:00 +28°C° 0 mm 2 mps 744 mmHg 59%
    11:00 +30°C° 0 mm 2 mps 744 mmHg 55%
    12:00 +31°C° 0 mm 2 mps 744 mmHg 51%
    13:00 +31°C° 0 mm 2 mps 743 mmHg 51%
    14:00 +31°C° 0 mm 2 mps 743 mmHg 52%
    15:00 +31°C° 0 mm 2 mps 742 mmHg 52%
    16:00 +29°C° 0 mm 2 mps 742 mmHg 58%
    17:00 +27°C° 0 mm 2 mps 742 mmHg 63%
    18:00 +26°C° 0 mm 2 mps 742 mmHg 69%
    19:00 +25°C° 0 mm 2 mps 742 mmHg 70%
    20:00 +24°C° 0 mm 2 mps 743 mmHg 72%
    21:00 +23°C° 0 mm 2 mps 743 mmHg 74%
    22:00 +23°C° 0 mm 2 mps 743 mmHg 74%
    23:00 +21°C° 0 mm 2 mps 743 mmHg 74%

    25 September, Monday

    Time Temperature Precipitation Wind Pressure Humidity
    00:00 +21°C° 0 mm 2 mps 742 mmHg 74%
    01:00 +21°C° 0 mm 1 mps 742 mmHg 74%
    02:00 +21°C° 0 mm 1 mps 742 mmHg 74%
    03:00 +21°C° 0 mm 1 mps 742 mmHg 74%
    04:00 +21°C° 0 mm 1 mps 742 mmHg 75%
    05:00 +20°C° 0 mm 1 mps 743 mmHg 76%
    06:00 +20°C° 0 mm 1 mps 743 mmHg 77%
    07:00 +22°C° 0 mm 1 mps 743 mmHg 71%
    08:00 +25°C° 0 mm 1 mps 743 mmHg 65%
    09:00 +27°C° 0 mm 1 mps 743 mmHg 59%
    10:00 +28°C° 0 mm 1 mps 743 mmHg 55%
    11:00 +28°C° 0 mm 0 mps 743 mmHg 52%
    12:00 +29°C° 0 mm 0 mps 743 mmHg 48%
    13:00 +31°C° 0 mm 1 mps 742 mmHg 48%
    14:00 +31°C° 0 mm 1 mps 742 mmHg 48%
    15:00 +31°C° 0 mm 1 mps 741 mmHg 47%
    16:00 +29°C° 0 mm 1 mps 741 mmHg 53%
    17:00 +28°C° 0 mm 1 mps 741 mmHg 58%
    18:00 +26°C° 0 mm 1 mps 741 mmHg 63%
    19:00 +25°C° 0 mm 1 mps 741 mmHg 66%
    20:00 +24°C° 0 mm 1 mps 741 mmHg 68%
    21:00 +24°C° 0 mm 1 mps 742 mmHg 71%
    22:00 +23°C° 0 mm 1 mps 741 mmHg 72%
    23:00 +23°C° 0 mm 1 mps 741 mmHg 74%

    26 September, Tuesday

    Time Temperature Precipitation Wind Pressure Humidity
    00:00 +20°C° 0 mm 0 mps 741 mmHg 75%
    01:00 +22°C° 0 mm 1 mps 741 mmHg 76%
    02:00 +22°C° 0 mm 1 mps 741 mmHg 77%
    03:00 +22°C° 0 mm 1 mps 741 mmHg 78%
    04:00 +22°C° 0 mm 1 mps 741 mmHg 79%
    05:00 +19°C° 0 mm 0 mps 741 mmHg 80%
    06:00 +19°C° 0 mm 0 mps 742 mmHg 81%
    07:00 +23°C° 0 mm 1 mps 742 mmHg 75%
    08:00 +26°C° 0 mm 1 mps 742 mmHg 69%
    09:00 +28°C° 0 mm 1 mps 742 mmHg 64%
    10:00 +29°C° 0 mm 1 mps 742 mmHg 60%
    11:00 +30°C° 0 mm 1 mps 742 mmHg 56%
    12:00 +31°C° 0 mm 2 mps 741 mmHg 53%
    13:00 +31°C° 0 mm 2 mps 741 mmHg 54%
    14:00 +30°C° 0 mm 1 mps 741 mmHg 56%
    15:00 +30°C° 0 mm 1 mps 740 mmHg 57%
    16:00 +29°C° 0 mm 1 mps 740 mmHg 60%
    17:00 +28°C° 0 mm 1 mps 741 mmHg 64%
    18:00 +26°C° 0 mm 1 mps 741 mmHg 67%
    19:00 +26°C° 0 mm 1 mps 741 mmHg 70%
    20:00 +25°C° 0 mm 1 mps 741 mmHg 72%
    21:00 +24°C° 0 mm 1 mps 741 mmHg 75%
    22:00 +24°C° 0 mm 1 mps 740 mmHg 76%
    23:00 +23°C° 0 mm 1 mps 740 mmHg 78%

    27 September, Wednesday

    Time Temperature Precipitation Wind Pressure Humidity
    00:00 +23°C° 0 mm 1 mps 740 mmHg 79%
    01:00 +23°C° 0 mm 1 mps 740 mmHg 80%
    02:00 +23°C° 0 mm 1 mps 740 mmHg 81%
    03:00 +21°C° 0 mm 2 mps 740 mmHg 83%
    04:00 +21°C° 0.1 mm 2 mps 740 mmHg 85%
    05:00 +21°C° 0.1 mm 2 mps 740 mmHg 87%
    06:00 +21°C° 0.1 mm 2 mps 740 mmHg 89%
    07:00 +23°C° 0.1 mm 2 mps 740 mmHg 86%
    08:00 +24°C° 0.1 mm 3 mps 741 mmHg 82%
    09:00 +25°C° 0.1 mm 3 mps 741 mmHg 79%
    10:00 +26°C° 0.1 mm 4 mps 741 mmHg 76%
    11:00 +26°C° 0.1 mm 4 mps 740 mmHg 74%
    12:00 +27°C° 0.1 mm 4 mps 740 mmHg 71%
    13:00 +26°C° 0 mm 4 mps 740 mmHg 71%
    14:00 +26°C° 0 mm 5 mps 740 mmHg 71%
    15:00 +25°C° 0 mm 5 mps 740 mmHg 71%
    16:00 +23°C° 0 mm 4 mps 740 mmHg 74%
    17:00 +22°C° 0 mm 3 mps 740 mmHg 77%
    18:00 +20°C° 0 mm 3 mps 740 mmHg 79%
    19:00 +19°C° 0 mm 3 mps 740 mmHg 82%
    20:00 +18°C° 0 mm 3 mps 741 mmHg 85%
    21:00 +17°C° 0 mm 3 mps 741 mmHg 87%
    22:00 +17°C° 0 mm 2 mps 741 mmHg 88%
    23:00 +16°C° 0 mm 2 mps 741 mmHg 89%
    Show more